Location: Stoke Bliss
(52.2667°N, 2.5167°W)
Time: 20:22:08
(UTC+00:00)

Ariane Rocket - Pass Details

Date: 03 March 2021
Orbit: 759 x 771 km, 98.7° (Epoch: 15 April)

Event Time Altitude Azimuth Distance (km) Brightness Sun altitude
Exits shadow 20:22:16 21° 182° (S) 1,683 4.6 -23.2°
Maximum altitude 20:25:39 62° 258° (WSW) 869 3.4 -23.7°
Drops below altitude 10° 20:30:44 10° 339° (NNW) 2,325 6.0 -24.4°
Sets 20:33:05 0° 343° (NNW) 3,255 6.8 -24.8°
